This is the latest recevied weather packets stored in our database for station/object KB9PVH-8. If no packets are shown the sender has not sent any weather packets the latest 10 day(s).
| Time | Temp. | Humidity | Pressure | Rain* | Wind** | Luminosity | Snow |
|---|---|---|---|---|---|---|---|
| 1787863905 | 28.33° C | - | - | 0 mm | 22.8 m/s, ° | - | - |
| 1787863823 | 28.33° C | - | - | 0 mm | 22.8 m/s, ° | - | - |
| 1787863070 | 27.78° C | - | - | 0 mm | 25.03 m/s, ° | - | - |
| 1787862985 | 27.78° C | - | - | 0 mm | 25.03 m/s, ° | - | - |
| 1787861303 | 27.22° C | - | - | 0 mm | 7.15 m/s, ° | - | - |
| 1787860433 | 27.78° C | - | - | 0 mm | 26.38 m/s, ° | - | - |
| 1787859595 | 27.78° C | - | - | 0 mm | 8.05 m/s, ° | - | - |
| 1787858900 | 28.33° C | - | - | 0 mm | 33.98 m/s, ° | - | - |
| 1787858753 | 28.33° C | - | - | 0 mm | 33.98 m/s, ° | - | - |
| 1787858054 | 26.67° C | - | - | 0 mm | 32.19 m/s, ° | - | - |
| 1787857913 | 26.67° C | - | - | 0 mm | 32.19 m/s, ° | - | - |
| 1787857161 | 27.78° C | - | - | 0 mm | 9.39 m/s, ° | - | - |
| 1787857043 | 27.78° C | - | - | 0 mm | 9.39 m/s, ° | - | - |
| 1787856297 | 27.22° C | - | - | 0 mm | 33.98 m/s, ° | - | - |
| 1787856203 | 27.22° C | - | - | 0 mm | 33.98 m/s, ° | - | - |
| 1787855367 | 26.11° C | - | - | 0 mm | 34.42 m/s, ° | - | - |
| 1787854523 | 26.67° C | - | - | 0 mm | 38.45 m/s, ° | - | - |
| 1787853687 | 26.11° C | - | - | 0 mm | 6.71 m/s, ° | - | - |
| 1787852843 | 26.67° C | - | - | 0 mm | 38.89 m/s, ° | - | - |
| 1787851162 | 26.67° C | - | - | 0 mm | 9.39 m/s, ° | - | - |
| 1787849485 | 26.11° C | - | - | 0 mm | 16.54 m/s, ° | - | - |
| 1787848645 | 26.11° C | - | - | 0 mm | 33.08 m/s, ° | - | - |
| 1787847972 | 25.56° C | - | - | 0 mm | 32.19 m/s, ° | - | - |
| 1787847803 | 25.56° C | - | - | 0 mm | 32.19 m/s, ° | - | - |
| 1787846967 | 25.56° C | - | - | 0 mm | 31.29 m/s, ° | - | - |
* Rain latest hour (hover to see other rain measurements)
** Current wind speed in m/s (hover to see current wind gust speed)